User: anonymous   Login
Location: Champaign/Urbana Astronomical Society Observatory
(40.0333°N, 88.2833°W)
Time: 17:43:47
(UTC-05:00)
Language:

STRAND 1 - Orbit

View from above orbital plane
View from above orbital plane
View from above satellite
View from above satellite

Ground track
Ground track

The orbit data is extracted from the following two-line orbital elements,

1 39090U 13009E   19141.13025013  .00000010  00000-0  18596-4 0  9999
2 39090  98.4911 347.5646 0009598  21.2489 338.9093 14.35083586326297
Epoch (UTC): 21 May 2019 03:07:33
Eccentricity: 0.0009598
inclination: 98.4911°
perigee height: 768 km
apogee height: 781 km
right ascension of ascending node: 347.5646°
argument of perigee: 21.2489°
revolutions per day: 14.35083586
mean anomaly at epoch: 338.9093°
orbit number at epoch: 32629

The dashed part of the orbit path shows where the satellite is in the earth's shadow,  

DLR